Simultaneous Nadir Overpasses (SNOs) Predictions

Prediction of SNOs between AQUA and METOP-B Satellite Orbit:

Table of predicted SNOs for the next 14.0 days since TLE Epoch: 11/16/2024
Index Date (AQUA) Time (AQUA) Lat,Lon (AQUA) SZA (AQUA ) Date (METOP-B) Time (METOP-B) Lat,Lon (METOP-B) SZA (METOP-B ) Distance(km) Time Diff (sec)
1 11/17/2024 15:20:47 75.98, -50.34 95.13 11/17/2024 15:19:43 75.90, -53.98 95.03 98.86 64
2 11/17/2024 16:10:18 -76.53, 115.52 84.34 11/17/2024 16:10:11 -76.53, 115.49 84.34 0.69 7
3 11/17/2024 16:59:39 76.56, -76.93 95.71 11/17/2024 17:00:50 76.56, -77.06 95.71 3.36 71
4 11/20/2024 05:50:13 76.53, 90.59 96.26 11/20/2024 05:49:32 76.54, 90.67 96.27 2.10 41
5 11/20/2024 06:39:33 -76.55,-101.80 83.72 11/20/2024 06:40:13 -76.56,-101.92 83.70 3.48 40
6 11/22/2024 19:30:05 -76.51, 65.76 83.21 11/22/2024 19:28:55 -76.53, 65.77 83.19 2.68 70
7 11/22/2024 20:19:26 76.55,-126.72 96.84 11/22/2024 20:19:34 76.56,-126.80 96.85 2.41 8
8 11/25/2024 09:59:16 -76.57,-151.68 82.63 11/25/2024 09:58:55 -76.58,-151.58 82.62 3.26 21
9 11/25/2024 10:48:37 76.61, 15.83 97.42 11/25/2024 10:49:34 76.61, 15.85 97.42 0.72 57
10 11/27/2024 23:39:05 76.56,-176.57 97.84 11/27/2024 23:38:16 76.54,-176.58 97.82 2.12 49
11 11/28/2024 00:28:26 -76.62, -9.11 82.10 11/28/2024 00:28:56 -76.62, -8.97 82.10 3.54 30



Historial Predications of SNOs between AQUA and METOP-B
